[[{"header":{"parameterUnit":"m.s-1","parameterCategory":1,"la1":30.2991,"la2":30.254,"lo1":-89.0895,"lo2":-89.0444,"dy":0.0017,"dx":0.0017,"nx":28,"ny":28,"refTime":"2025-09-08T21:00:00:Z","depth":0,"parameterNumber":2,"parameterNumberName":"U-component_of_WINDS"},"data":[0,0,0,0,0,0,0,0,0,0,0,0,0,0,0,0,0,0,0,0,0,0,0,0,0,0,0,0,0,0,0,0,0,0,0,0,0,0,0,0,0,0,0,0,0,0,0,0,0,0,0,0,0,0,0,0,0,0,-3.9082,-3.9082,0,-3.908,-3.908,-3.908,-3.8954,-3.8951,-3.8948,-3.8945,-3.8947,-3.895,-3.8953,0,0,0,0,0,0,0,0,0,0,0,0,0,-3.8985,-3.8988,-3.9082,-3.9082,-3.9082,-3.908,-3.908,-3.908,-3.8955,-3.8951,-3.8947,-3.8943,-3.8946,-3.895,-3.8953,0,0,0,0,0,0,0,0,0,0,0,0,0,-3.901,-3.8989,-3.9082,-3.902,-3.9014,-3.908,-3.908,-3.908,-3.8956,-3.8951,-3.8946,-3.8941,-3.8945,-3.8949,-3.8954,-3.9081,0,0,-3.8968,-3.897,0,0,0,0,0,0,0,0,-3.9009,-3.9014,-3.9029,-3.9024,-3.9018,-3.9012,-3.9046,-3.9081,-3.8957,-3.8978,-3.8945,-3.8939,-3.8973,-3.8975,-3.8985,-3.9081,-3.9081,-3.8969,-3.8971,-3.8973,-3.8975,0,0,0,0,0,0,0,-3.9007,-3.9013,-3.9081,-3.9029,-3.9023,-3.8994,-3.8992,-3.9052,-3.9003,-3.8976,-3.8967,-3.8968,-3.8969,-3.8981,-3.8985,-3.9081,-3.8968,-3.8973,-3.8975,-3.8977,-3.9285,-3.929,0,0,0,0,0,0,-3.9013,-3.9012,-3.9082,-3.9081,-3.9001,-3.8999,-3.8997,-3.9019,-3.9002,-3.8995,-3.8972,-3.8962,-3.8976,-3.8979,-3.8984,-3.9134,-3.8973,-3.8978,-3.898,-3.928,-3.9286,-3.9292,0,0,0,0,0,0,-3.9012,-3.9021,-3.9082,-3.9044,-3.905,-3.9006,-3.9032,-3.9022,-3.9034,-3.8999,-3.8991,-3.8993,-3.8972,-3.8978,-3.9058,-3.9132,-3.898,-3.8984,-3.9273,-3.9282,-3.9289,-3.9433,0,0,0,0,0,0,-3.9009,-3.9021,-3.9067,-3.9046,-3.9052,-3.9154,-3.9036,-3.9025,-3.9041,-3.9028,-3.9017,-3.901,-3.8969,-3.9052,-3.9063,-3.9136,-3.8988,-3.9267,-3.9277,-3.9287,-3.9422,-3.9445,-3.9465,0,0,0,0,0,-3.9006,-3.9108,-3.907,-3.9079,-3.9109,-3.9159,-3.9162,-3.9111,-3.9048,-3.9095,-3.9074,-3.9011,-3.9123,-3.9061,-3.9073,-3.9148,-3.9262,-3.9274,-3.9286,-3.9412,-3.944,-3.9465,0,0,0,0,0,0,-3.9139,-3.9104,-3.9061,-3.9159,-3.9163,-3.9137,-3.9195,-3.9143,-3.9165,-3.9152,-3.9089,-3.9088,-3.9179,-3.9172,-3.9104,-3.9272,-3.9181,-3.9196,-3.9273,-3.93,-3.9321,-3.9321,-3.8992,0,0,0,0,0,-3.9179,-3.9221,-3.9189,-3.9278,-3.9282,-3.9239,-3.9258,-3.9219,-3.9221,-3.9222,-3.9206,-3.9212,-3.9249,-3.9274,-3.9306,-3.9421,-3.9418,-3.9478,-3.95,-3.9518,-3.9532,-3.9594,-3.9622,-3.9332,-3.9332,-3.9332,0,0,-3.9263,-3.925,-3.9279,-3.9304,-3.9302,-3.9349,-3.9241,-3.9294,-3.9328,-3.923,-3.9305,-3.9295,-3.9298,-3.9397,-3.944,-3.9393,-3.9611,-3.9534,-3.9548,-3.9552,-3.961,-3.9637,-3.9662,-3.934,-3.9339,-3.9337,0,0,-3.944,-3.9433,-3.9507,-3.9509,-3.9507,-3.9478,-3.9497,-3.948,-3.9469,-3.9543,-3.9471,-3.9513,-3.9577,-3.9582,-3.9594,-3.9777,-3.9721,-3.979,-3.9903,-3.9965,-3.9988,-4.0008,-4.0075,-4.0099,-3.9803,-3.9804,-3.9804,0,-3.9545,-3.961,-3.9553,-3.9611,-3.9626,-3.9539,-3.9616,-3.962,-3.963,-3.9643,-3.9591,-3.9671,-3.9666,-3.9767,-3.9812,-3.9823,-3.9844,-3.979,-3.9989,-4.0009,-4.0026,-4.009,-4.0115,-3.9812,-3.9811,-3.981,-3.981,0,-3.974,-3.9787,-3.9848,-3.9859,-3.988,-3.9948,-3.9903,-3.9932,-3.9892,-3.987,-3.9949,-3.9941,-3.9971,-3.9992,-3.9953,-4.0088,-4.0059,-4.0,-3.9907,-4.0063,-4.0122,-4.0145,-3.9824,-3.9821,-3.9819,-3.9817,0,0,-3.9998,-3.9978,-4.0001,-4.0006,-4.0,-4.0037,-4.0102,-4.013,-4.0157,-4.0168,-4.0223,-4.0281,-4.0226,-4.0239,-4.0201,-4.0256,-4.0404,-4.0189,-4.0188,-4.023,-4.0554,-4.0599,-4.0628,-4.0367,-4.0371,-4.0375,-4.0554,0,-4.0169,-4.0277,-4.0229,-4.0343,-4.0387,-4.0308,-4.0365,-4.0369,-4.0351,-4.0388,-4.0369,-4.0411,-4.0335,-4.0343,-4.0393,-4.0375,-4.0468,-4.0361,-4.0419,-4.0422,-4.042,-4.0658,-4.0705,-4.0875,-4.0577,-4.058,-4.0583,0,-4.0383,-4.0402,-4.0521,-4.0509,-4.0526,-4.0578,-4.0601,-4.0637,-4.0641,-4.0625,-4.0641,-4.0592,-4.0658,-4.0567,-4.0659,-4.0588,-4.0609,-4.0605,-4.061,-4.0613,-4.0512,-4.0668,-4.0927,-4.0953,-4.0618,-4.0616,-4.0613,0,-4.056,-4.0616,-4.0694,-4.0701,-4.069,-4.0729,-4.0726,-4.0725,-4.0747,-4.0768,-4.0782,-4.0812,-4.0828,-4.0854,-4.0815,-4.0752,-4.0914,-4.0819,-4.0904,-4.0905,-4.094,-4.0938,-4.1207,-4.0955,-4.0954,-4.0954,-4.0953,0,-4.0756,-4.0832,-4.0774,-4.0822,-4.0906,-4.0852,-4.0937,-4.0926,-4.0928,-4.0974,-4.0908,-4.0954,-4.09,-4.0942,-4.0913,-4.0995,-4.1003,-4.0993,-4.0984,-4.0998,-4.1,-4.1011,-4.0998,-4.096,-4.0959,-4.0958,-4.0956,0,-4.0967,-4.0931,-4.1012,-4.0995,-4.0993,-4.1055,-4.1042,-4.1088,-4.1066,-4.1126,-4.1138,-4.1105,-4.1151,-4.1115,-4.1161,-4.1141,-4.1249,-4.1224,-4.1247,-4.124,-4.1327,-4.132,-4.1612,-4.1649,-4.1373,-4.1376,-4.1378,0,-4.1095,-4.1151,-4.1141,-4.1167,-4.1168,-4.1211,-4.1232,-4.1183,-4.1208,-4.122,-4.1265,-4.1305,-4.1334,-4.1413,-4.1394,-4.143,-4.1405,-4.1505,-4.141,-4.1424,-4.1408,-4.1405,-4.1411,-4.1524,-4.1528,-4.153,-4.1532,0,-4.1325,-4.1305,-4.1337,-4.1365,-4.1392,-4.1412,-4.1426,-4.1452,-4.1402,-4.1435,-4.148,-4.1504,-4.1551,-4.1592,-4.1622,-4.1622,-4.1571,-4.1563,-4.1584,-4.16,-4.1611,-4.1607,-4.13,-4.1556,-4.1554,-4.1552,-4.1551,-4.155,-4.1499,-4.1546,-4.1546,-4.1586,-4.1592,-4.1607,-4.165,-4.1634,-4.1671,-4.1704,-4.1674,-4.173,-4.1737,-4.1771,-4.1778,-4.1823,-4.1781,-4.1812,-4.182,-4.1829,-4.1842,-4.1605,-4.1828,-4.1827,-4.1826,-4.1826,-4.1825,0,-4.1726,-4.1723,-4.176,-4.1782,-4.1814,-4.1762,-4.1776,-4.1807,-4.1857,-4.1867,-4.1897,-4.1952,-4.1993,-4.1979,-4.2016,-4.2055,-4.2033,-4.2067,-4.2063,-4.2065,-4.1876,-4.1853,-4.2085,-4.2085,-4.2084,-4.2084,-4.2084,-4.2084,-4.1848,-4.1926,-4.1907,-4.1989,-4.1986,-4.2039,-4.2052,-4.2067,-4.2075,-4.2138,-4.2172,-4.2162,-4.2164,-4.2201,-4.2238,-4.2233,-4.225,-4.2293,-4.228,-4.2103,-4.2078,-4.2053,-4.2032,-4.2297,-4.2297,-4.2465,-4.2467,-4.2468]},{"header":{"parameterUnit":"m.s-1","parameterCategory":1,"la1":30.2991,"la2":30.254,"lo1":-89.0895,"lo2":-89.0444,"dy":0.0017,"dx":0.0017,"nx":28,"ny":28,"refTime":"2025-09-08T21:00:00:Z","depth":0,"parameterNumber":3,"parameterNumberName":"V-component_of_WINDS"},"data":[0,0,0,0,0,0,0,0,0,0,0,0,0,0,0,0,0,0,0,0,0,0,0,0,0,0,0,0,0,0,0,0,0,0,0,0,0,0,0,0,0,0,0,0,0,0,0,0,0,0,0,0,0,0,0,0,0,0,0.549,0.549,0,0.5481,0.5481,0.548,0.5483,0.5484,0.5484,0.5484,0.5472,0.5471,0.5471,0,0,0,0,0,0,0,0,0,0,0,0,0,0.5511,0.551,0.549,0.549,0.549,0.5481,0.5481,0.548,0.5483,0.5484,0.5484,0.5484,0.5472,0.5471,0.5471,0,0,0,0,0,0,0,0,0,0,0,0,0,0.5502,0.551,0.549,0.5491,0.5491,0.5481,0.5481,0.548,0.5483,0.5484,0.5484,0.5484,0.5472,0.5472,0.5471,0.5459,0,0,0.5468,0.5468,0,0,0,0,0,0,0,0,0.5502,0.5501,0.5491,0.5491,0.5491,0.5484,0.5483,0.5473,0.5483,0.5486,0.5484,0.5484,0.5475,0.5474,0.5472,0.5459,0.5458,0.5468,0.5468,0.5467,0.5467,0,0,0,0,0,0,0,0.5503,0.5501,0.5486,0.5491,0.549,0.5491,0.549,0.5481,0.5479,0.5486,0.5486,0.5485,0.5475,0.5473,0.5472,0.5458,0.5468,0.5468,0.5467,0.5467,0.5437,0.5436,0,0,0,0,0,0,0.5504,0.5502,0.5487,0.5486,0.5497,0.549,0.5489,0.5485,0.5479,0.5478,0.5485,0.5485,0.5474,0.5472,0.5471,0.5458,0.5467,0.5467,0.5466,0.5437,0.5437,0.5436,0,0,0,0,0,0,0.5504,0.5502,0.5487,0.5494,0.5492,0.549,0.5485,0.5485,0.5482,0.5478,0.5478,0.5482,0.5474,0.5472,0.5463,0.5457,0.5466,0.5466,0.5437,0.5437,0.5436,0.5431,0,0,0,0,0,0,0.5505,0.5502,0.5498,0.5494,0.5492,0.5479,0.5485,0.5485,0.5481,0.5482,0.5476,0.5475,0.5474,0.5464,0.5462,0.5456,0.5465,0.5438,0.5437,0.5437,0.5431,0.543,0.5429,0,0,0,0,0,0.5505,0.5496,0.5498,0.5496,0.5487,0.5479,0.5478,0.5477,0.5481,0.5476,0.5474,0.5475,0.5459,0.5463,0.5461,0.5455,0.5438,0.5437,0.5437,0.5432,0.543,0.5429,0,0,0,0,0,0,0.5498,0.5496,0.5497,0.5487,0.5483,0.5479,0.5474,0.5475,0.547,0.547,0.547,0.5468,0.5459,0.5456,0.5461,0.5444,0.5449,0.5448,0.5446,0.5445,0.5444,0.5444,0.5464,0,0,0,0,0,0.5496,0.5491,0.5488,0.5479,0.5477,0.5476,0.5472,0.5473,0.5469,0.5467,0.5464,0.5459,0.5453,0.5449,0.5443,0.5432,0.5431,0.5427,0.5426,0.5425,0.5423,0.5418,0.5416,0.5434,0.5434,0.5434,0,0,0.549,0.5488,0.5484,0.5478,0.5475,0.5469,0.5474,0.5468,0.5463,0.5466,0.5456,0.5454,0.5449,0.5439,0.5435,0.5437,0.5419,0.5424,0.5423,0.5422,0.5417,0.5415,0.5414,0.5433,0.5433,0.5433,0,0,0.5476,0.5474,0.5467,0.5465,0.5461,0.546,0.5459,0.5455,0.5454,0.5446,0.5447,0.5442,0.5431,0.5428,0.5425,0.5412,0.5413,0.5411,0.5404,0.5399,0.5397,0.5396,0.5391,0.539,0.5409,0.5409,0.5409,0,0.5469,0.5461,0.5462,0.5456,0.5453,0.5457,0.5449,0.5447,0.5441,0.5439,0.5442,0.5429,0.5426,0.5415,0.5413,0.541,0.5408,0.541,0.5398,0.5396,0.5395,0.5391,0.5389,0.5409,0.5409,0.5409,0.5409,0,0.5452,0.5447,0.5441,0.5437,0.5433,0.5426,0.5427,0.5423,0.5425,0.5424,0.5415,0.5412,0.5406,0.5404,0.5404,0.5394,0.5395,0.5398,0.5402,0.5393,0.5389,0.5387,0.5409,0.5409,0.5409,0.5409,0,0,0.5431,0.543,0.5428,0.5427,0.5424,0.5419,0.5413,0.5408,0.5405,0.5402,0.5396,0.5388,0.5391,0.5388,0.5388,0.5383,0.5374,0.5387,0.5387,0.5384,0.5362,0.536,0.5358,0.5375,0.5375,0.5375,0.5363,0,0.5417,0.5406,0.5409,0.5398,0.5393,0.5398,0.5392,0.539,0.539,0.5385,0.5385,0.5379,0.5383,0.5381,0.5377,0.5376,0.5369,0.5377,0.537,0.5369,0.537,0.5355,0.5352,0.534,0.5361,0.5361,0.536,0,0.5398,0.5396,0.5385,0.5384,0.5382,0.5377,0.5374,0.537,0.5368,0.5368,0.5365,0.5367,0.5361,0.5366,0.5358,0.5363,0.536,0.536,0.5359,0.5357,0.5363,0.5353,0.5337,0.5335,0.5358,0.5358,0.5358,0,0.5384,0.5378,0.537,0.5369,0.5369,0.5365,0.5365,0.5363,0.536,0.5357,0.5356,0.5352,0.5349,0.5346,0.5347,0.5351,0.5338,0.5344,0.5338,0.5338,0.5333,0.5333,0.5316,0.5333,0.5333,0.5333,0.5333,0,0.5367,0.536,0.5364,0.536,0.5352,0.5356,0.5348,0.5348,0.5347,0.5343,0.5347,0.5342,0.5344,0.534,0.5341,0.5333,0.5332,0.5332,0.5332,0.5331,0.5331,0.5328,0.5329,0.5333,0.5333,0.5333,0.5333,0,0.5348,0.5351,0.5344,0.5345,0.5345,0.5339,0.534,0.5336,0.5337,0.5331,0.533,0.5331,0.5327,0.5328,0.5323,0.5323,0.5314,0.5316,0.5315,0.5315,0.5309,0.5309,0.5288,0.5286,0.5305,0.5305,0.5305,0,0.5336,0.5331,0.5333,0.5331,0.533,0.5326,0.5325,0.5328,0.5326,0.5324,0.532,0.5317,0.5314,0.5306,0.5306,0.5303,0.5304,0.5297,0.5303,0.5303,0.5303,0.5303,0.5302,0.5295,0.5295,0.5295,0.5294,0,0.5315,0.5318,0.5315,0.5313,0.5311,0.531,0.5308,0.5306,0.531,0.5307,0.5304,0.5301,0.5297,0.5293,0.5291,0.529,0.5292,0.5293,0.5291,0.5289,0.5289,0.5289,0.5311,0.5293,0.5293,0.5293,0.5293,0.5293,0.5299,0.5295,0.5296,0.5293,0.5294,0.5293,0.5289,0.5291,0.5288,0.5286,0.5288,0.5284,0.5283,0.528,0.5279,0.5275,0.5278,0.5275,0.5275,0.5274,0.5273,0.5291,0.5275,0.5275,0.5275,0.5275,0.5275,0,0.5278,0.5279,0.5277,0.5276,0.5274,0.5279,0.5279,0.5276,0.5273,0.5273,0.527,0.5266,0.5263,0.5264,0.5262,0.5259,0.526,0.5258,0.5257,0.5257,0.5271,0.5272,0.5257,0.5257,0.5257,0.5257,0.5257,0.5257,0.5266,0.526,0.5263,0.5257,0.5259,0.5255,0.5255,0.5254,0.5254,0.525,0.5248,0.5249,0.525,0.5247,0.5245,0.5245,0.5244,0.5241,0.5242,0.5254,0.5256,0.5258,0.5259,0.5241,0.5241,0.5228,0.5228,0.5228]}]]